ギブス彗星

341P/Gibbs (2025)

English version
Home page
Updated on October 1, 2025

---------------------------------------------------------------------

・ プロフィール

・ 写真集

・ 軌道要素

Epoch 2025 May 5.0 TT = JDT 2460800.5
T 2025 Apr. 22.72423 TT                                 MPCW
q   2.5065398            (2000.0)            P               Q
n   0.11111724     Peri.  312.37045     +0.95197253     +0.30439349
a   4.2849764      Node    29.95228     -0.25785038     +0.85523477
e   0.4150400      Incl.    3.79655     -0.16511052     +0.41942591
P   8.87
From 174 observations 2007 Sept. 10-2016 Dec. 7, mean residual 0".7.

・ 光度変化

        m1 = 12.5 + 5 logΔ + 10.0 log r

---------------------------------------------------------------------

軌道要素はM.P.E.C. 2017-E59に掲載されたものです。
光度グラフはComet for Windowsで作成したものです。

---------------------------------------------------------------------

Copyright(C) Seiichi Yoshida (comet@aerith.net). All rights reserved.